SCP
0 0 0 0 0 0 0 0 0 0 0 0 0 0 0 0 0 1 1 1 1 1 0 0 0 0 0 0 0 0 0 0 0 0 0 0 0 0 0 0 0 0 0
0 0 0 0 0 0 0 0 0 0 0 0 0 0 0 0 0 1 1 1 1 0 0 0 0 0 0 0 0 0 0 0 0 0 0 0 0 0 0 0 0 0 0
0 0 0 0 0 0 0 0 0 0 0 0 0 0 0 0 0 0 0 0 0 0 0 0 0 0 0 0 0 0 0 0 0 0 0 0 0 0 0 0 0 0 0
0 0 0 0 0 0 0 0 0 0 0 0 0 0 0 0 0 0 0 0 0 0 0 0 0 0 0 0 0 0 0 0 0 0 0 0 0 0 0 0 0 0 0
0 0 0 0 0 0 0 0 0 0 0 0 0 0 0 0 0 0 0 0 0 0 0 0 0 0 0 0 0 0 0 0 0 0 0 0 0 0 0 0 0 0 0
0 0 0 0 0 0 0 0 0 0 0 0 0 0 0 0 0 0 0 0 0 0 0 0 0 0 0 0 0 0 0 0 0 0 0 0 0 0 0 0 0 0 0
0 0 0 0 0 0 0 0 0 0 0 0 0 0 0 0 0 0 0 0 0 0 0 0 0 0 0 0 0 0 0 0 0 0 0 0 0 0 0 0 0 0 0
0 0 0 0 0 0 0 0 0 0 0 0 0 0 0 0 0 0 0 0 0 0 0 0 0 0 0 0 0 0 0 0 0 0 0 0 0 0 0 0 0 0 0
0 0 0 0 0 0 0 0 1 0 0 0 0 0 0 0 0 0 0 0 0 0 0 0 0 0 0 0 0 0 0 0 0 0 0 0 0 0 0 0 0 0 0
0 0 0 0 0 0 0 0 1 1 1 0 0 0 0 0 0 0 0 0 0 0 0 0 0 0 0 0 0 0 0 0 0 0 0 0 0 0 0 0 0 0 0
0 0 0 0 0 0 0 0 1 1 1 0 0 0 0 0 0 0 0 0 0 0 0 0 0 0 0 0 0 0 0 0 0 0 0 0 0 0 0 0 0 0 0
0 0 0 0 0 0 0 0 1 1 1 0 0 0 0 0 0 0 0 0 0 0 0 0 0 0 0 0 0 0 0 0 0 0 0 0 0 0 0 0 0 0 0
0 0 0 0 0 0 0 0 0 1 1 0 0 0 0 0 0 0 0 0 0 0 0 0 0 0 0 0 0 0 0 0 0 0 0 0 0 0 0 0 0 0 0
0 0 0 0 0 0 0 0 0 0 0 0 0 0 0 0 0 0 0 0 0 0 0 0 0 0 0 0 0 0 0 0 0 0 0 0 0 0 0 0 0 0 0
0 0 0 0 0 0 0 0 0 0 0 0 0 0 0 0 0 0 0 0 0 0 0 0 0 0 0 0 0 0 0 0 0 0 0 0 0 0 0 0 0 0 0
0 0 0 0 0 0 0 0 0 0 0 0 0 0 0 0 0 0 0 0 0 0 0 0 0 0 0 0 0 0 0 0 0 0 0 0 0 0 0 0 0 0 0
0 0 0 0 0 0 0 0 0 0 0 0 0 0 0 0 0 0 0 0 0 0 0 0 0 0 0 0 0 0 0 0 0 0 0 0 0 0 0 0 0 0 0
0 0 0 0 0 0 0 0 0 0 0 0 0 0 0 0 0 0 0 0 0 0 0 0 0 0 0 0 0 0 0 0 0 0 0 0 0 0 0 0 0 0 0
0 0 0 0 0 0 0 0 0 0 0 0 0 0 0 0 0 0 0 0 0 0 0 0 0 0 0 0 0 0 0 0 0 0 0 0 0 0 0 0 0 0 0
0 0 0 0 0 0 0 0 0 0 0 0 0 0 0 0 0 0 0 0 0 0 0 0 0 0 0 0 0 0 0 0 0 0 0 0 0 0 0 0 0 0 0
0 0 0 0 0 0 0 0 0 0 0 0 0 0 0 0 0 0 0 0 0 0 0 0 0 0 0 0 0 0 0 0 0 0 0 0 0 0 0 0 0 0 0
0 0 0 0 0 0 0 0 0 0 0 0 0 0 0 0 0 0 0 0 0 0 0 0 0 0 0 0 0 0 0 0 0 0 0 0 0 0 0 0 0 0 0
0 0 0 0 0 0 0 0 0 0 0 0 0 0 0 0 0 0 0 0 0 0 0 0 0 0 0 0 0 0 0 0 0 0 0 0 0 0 0 0 0 0 0
0 0 0 0 0 0 0 0 0 0 0 0 0 0 0 0 0 0 0 0 0 0 0 0 0 0 0 0 0 0 0 0 0 0 0 0 0 0 0 0 0 0 0
0 0 0 0 0 0 0 0 0 0 0 0 0 0 0 0 0 0 0 0 0 0 0 0 0 0 0 0 0 0 0 0 0 0 0 0 0 0 0 0 0 0 0
0 0 0 0 0 0 0 0 0 0 0 0 0 0 0 0 0 0 0 0 0 0 0 0 0 0 0 0 0 0 0 0 0 0 0 0 0 0 0 0 0 0 0
Wind_Speed
3 3 3 3 3 3 3 4 4 4 4 5 5 5 5 5 5 5 5 5 6 6 6 7 7 6 5 5 5 5 5 5 6 5 4 4 5 6 5 5 5 5 5
3 3 3 3 3 3 4 4 4 4 4 5 5 5 5 5 6 6 6 6 6 7 7 7 7 5 7 5 5 6 6 6 6 7 5 4 5 5 5 5 4 4 5
4 3 4 4 4 4 4 4 4 4 5 5 5 6 5 5 6 6 7 6 7 7 7 8 7 7 8 6 7 6 6 6 6 6 5 4 3 3 4 4 5 5 5
4 4 4 4 4 5 4 4 4 4 5 5 5 6 5 5 6 6 6 6 6 6 6 7 8 8 8 8 7 7 6 6 6 6 5 4 3 3 4 4 4 4 4
4 5 5 5 5 4 4 4 4 5 5 5 5 6 5 5 5 6 6 7 6 6 6 7 7 8 8 7 6 6 6 6 5 6 5 4 4 3 4 3 4 4 4
5 5 5 4 4 4 4 4 4 5 5 5 5 5 5 4 6 7 6 6 6 7 6 7 7 7 8 9 10 9 9 8 7 6 6 6 6 5 4 4 4 4 4
5 5 5 4 4 4 5 5 5 5 5 5 5 5 6 6 7 8 7 6 6 6 7 6 5 5 7 7 7 8 9 11 11 8 8 8 7 6 6 6 5 5 5
5 5 4 4 4 4 4 4 4 4 4 4 5 5 6 6 7 8 8 7 6 6 6 7 6 6 6 6 5 5 6 6 7 7 7 7 6 6 6 5 4 4 4
4 5 4 4 4 4 4 5 4 4 4 4 5 5 6 6 6 7 6 5 5 5 5 5 5 6 7 7 5 5 5 4 5 7 7 6 6 6 5 3 4 4 4
5 5 4 4 4 4 5 5 4 4 4 4 4 5 6 6 6 6 6 4 4 4 4 4 6 6 6 6 5 5 6 5 4 3 4 5 5 5 7 6 5 4 3
4 4 4 4 4 4 4 4 4 4 4 4 4 4 4 5 5 6 6 4 3 3 3 3 3 4 5 5 5 5 5 4 4 3 3 3 2 2 3 3 3 4 4
4 4 4 3 3 3 4 3 3 3 3 3 4 4 3 3 4 5 6 5 4 4 4 3 2 3 4 5 4 3 3 3 2 2 2 2 2 2 2 2 2 2 3
3 3 3 3 3 3 3 3 3 3 3 3 3 3 3 3 3 5 5 5 5 4 3 3 3 3 3 3 2 2 2 2 2 2 3 2 2 1 1 0 0 0 1
3 3 3 3 3 3 3 3 3 3 3 3 3 3 3 3 3 3 3 2 3 3 2 2 2 2 2 2 2 2 2 2 2 2 2 1 1 1 1 1 1 1 1
3 3 3 3 3 3 3 3 4 4 4 4 3 3 4 4 4 5 4 3 2 2 2 1 1 1 1 1 1 1 1 1 1 1 1 1 1 1 1 1 1 1 2
3 3 3 3 3 3 3 3 4 5 5 6 6 6 5 6 6 6 6 5 4 3 2 2 2 2 2 2 2 1 1 1 1 1 1 1 2 1 1 1 1 1 2
3 3 3 3 3 3 3 3 3 3 3 4 5 5 5 5 6 5 5 5 4 3 2 2 2 2 2 2 2 2 2 1 1 1 1 1 1 1 1 1 1 1 2
3 4 3 3 3 3 3 3 3 3 3 3 3 4 4 4 4 4 4 3 2 2 2 2 2 2 2 2 2 2 2 1 1 1 1 1 1 1 2 2 2 2 2
3 3 3 3 3 3 3 3 3 3 3 3 3 3 3 4 4 3 2 2 2 2 2 2 2 2 2 2 2 2 2 2 2 2 1 2 2 2 2 2 2 2 2
3 4 4 3 2 2 2 2 2 3 3 3 3 3 2 2 2 2 1 1 2 2 2 2 2 2 2 2 2 2 2 2 2 2 2 2 2 2 2 2 2 2 2
3 3 4 3 2 2 2 2 2 3 3 3 3 3 4 3 2 2 2 2 2 2 2 2 2 2 2 2 2 2 3 2 2 2 2 2 2 2 2 2 2 2 1
3 3 3 3 2 2 2 2 2 2 3 3 3 3 4 3 2 2 2 2 2 2 2 2 2 2 2 2 2 3 3 3 2 2 2 2 2 2 2 2 1 1 1
3 3 3 3 2 3 2 2 2 2 2 3 3 3 3 2 2 2 2 2 2 2 1 1 2 2 2 2 2 3 3 3 3 2 2 2 2 2 2 2 1 1 1
3 3 3 3 2 2 2 2 2 3 3 3 3 3 3 2 2 2 2 2 1 1 1 1 2 2 3 2 2 2 2 2 2 2 3 3 2 2 2 1 1 1 1
3 3 3 3 2 2 2 2 2 3 3 3 3 3 3 2 2 2 2 2 2 2 2 2 2 2 2 3 2 2 2 3 3 2 3 3 3 2 2 2 1 1 1
3 3 3 2 2 2 2 2 2 3 3 3 3 2 2 2 2 2 2 2 2 2 2 2 2 2 2 1 2 2 3 3 3 3 2 2 3 2 2 2 2 2 2
Wind_Direction
292 280 273 271 269 267 261 261 257 255 255 254 250 243 241 241 240 236 235 231 232 234 231 230 230 229 231 229 231 232 234 240 253 263 261 253 247 247 243 245 247 247 243
292 287 279 268 261 259 261 265 265 260 257 257 256 247 246 242 239 237 236 232 232 235 235 233 230 226 231 230 230 232 234 235 242 255 255 250 253 252 252 249 251 253 254
288 281 275 269 263 261 262 264 265 264 261 257 255 249 246 245 243 242 239 238 239 239 240 239 234 228 231 232 232 234 237 238 239 246 255 256 255 246 253 253 254 256 259
283 275 271 270 267 264 263 259 261 263 260 258 258 255 248 247 247 246 243 241 241 244 247 246 240 233 234 234 234 235 238 240 237 239 246 249 254 248 246 248 256 254 257
279 272 270 272 270 266 262 260 259 259 258 257 258 257 253 248 249 252 245 241 242 246 250 251 248 243 241 243 241 235 232 234 233 234 236 242 242 237 241 247 256 267 271
274 272 274 271 269 268 261 259 258 258 255 253 254 255 254 252 260 260 258 248 244 245 249 253 251 244 241 243 243 241 238 236 234 236 237 233 237 241 245 241 249 258 269
275 274 276 273 269 270 265 257 259 259 256 254 257 258 258 261 265 263 259 255 251 250 250 253 254 250 248 246 243 243 244 243 240 241 242 241 240 232 232 238 240 252 264
278 275 274 270 266 270 269 261 260 260 259 259 262 265 264 265 266 264 262 258 257 252 251 250 251 252 249 246 244 246 249 246 246 243 245 247 246 238 232 238 243 261 283
282 280 278 269 264 265 267 268 263 259 259 259 261 265 266 267 267 268 264 260 255 255 255 250 247 250 248 247 240 242 249 257 261 252 252 250 246 233 226 219 223 236 263
289 286 280 270 266 267 270 272 265 257 258 264 265 268 268 269 271 267 264 254 255 259 257 249 245 249 249 245 241 237 240 247 247 248 244 243 241 223 219 226 227 232 252
292 287 279 274 273 273 273 270 265 260 263 264 270 275 274 276 274 270 268 260 252 257 255 250 247 249 249 251 256 247 242 248 245 245 248 241 233 228 228 234 237 237 239
289 285 283 283 281 274 271 269 265 262 264 267 269 277 280 280 280 276 270 270 270 255 251 249 251 253 260 262 262 250 244 253 244 237 235 233 230 229 230 233 244 262 269
287 286 287 288 286 281 276 273 270 264 262 266 269 276 286 288 286 286 278 276 275 269 265 273 271 270 274 268 260 253 256 244 234 232 234 241 244 234 218 226 267 297 309
288 290 289 287 288 283 277 270 269 266 264 262 263 271 280 284 284 285 281 274 278 272 270 266 259 271 275 274 260 260 265 256 243 235 236 240 235 210 214 220 221 220 270
292 290 286 279 280 281 279 277 274 269 267 267 268 268 270 274 283 290 285 278 277 266 263 253 246 250 254 249 253 262 266 250 242 228 211 210 216 218 237 232 223 240 258
288 289 283 281 282 281 285 295 289 277 283 276 276 273 273 276 285 284 284 283 282 269 256 239 241 244 248 249 238 236 239 236 234 221 214 212 210 212 225 234 240 244 255
293 293 291 288 288 290 291 295 306 310 295 288 285 287 281 277 276 279 279 277 267 265 249 237 240 240 240 245 238 232 239 238 231 221 219 221 217 218 219 235 245 247 259
297 296 293 290 288 287 286 290 294 299 304 306 301 294 295 289 278 279 274 268 256 251 242 239 241 243 241 237 235 233 228 223 222 222 219 226 224 222 227 237 244 248 258
309 301 298 296 293 288 285 286 287 288 290 296 303 306 312 305 298 285 267 246 241 248 249 248 247 247 244 238 233 232 226 222 222 225 226 228 228 225 232 240 246 249 259
314 312 307 300 297 295 287 283 285 286 289 291 296 302 314 309 296 295 285 252 243 248 249 246 245 245 241 237 230 226 225 221 214 221 225 226 230 229 231 237 239 242 253
316 317 315 306 301 297 290 290 293 294 294 295 297 302 304 296 291 294 293 279 261 253 250 245 239 237 236 231 226 223 222 222 221 220 218 218 222 228 235 238 239 242 246
311 311 312 311 308 304 299 294 293 293 298 300 305 312 315 304 295 295 292 290 286 274 259 245 240 238 235 232 226 223 221 220 219 216 214 215 215 221 228 237 245 239 216
310 311 313 313 312 310 308 305 301 301 304 305 307 311 313 310 308 306 307 308 310 304 286 254 240 242 243 238 233 227 222 222 219 212 207 206 208 213 218 218 214 211 206
314 314 314 315 317 313 309 309 309 309 309 309 311 313 314 315 317 318 314 315 315 306 289 268 252 247 250 248 238 232 229 222 210 202 200 199 206 212 207 195 190 193 184
315 315 315 315 317 317 307 306 308 308 306 305 308 310 312 316 318 318 318 315 312 304 301 290 266 249 242 243 244 236 221 219 219 207 195 193 194 197 188 178 174 165 160
324 320 316 313 310 308 305 303 304 304 301 300 301 300 302 306 309 313 315 313 311 308 305 299 285 272 264 253 234 219 215 212 207 205 190 181 184 180 172 164 164 156 146